When you browse on this site, cookies collect data to enhance your experience and personalize the content and advertising you see.
Visit our Privacy Policy to learn more. By continuing to use the site, you agree to this use of cookies and data.
  • In Hungary
  • List of Countries
  • For 7 days
  • Water Temperature
  • Weather Map
  • News
  • Weather Widgets
  • user-avatar
    Login

    Hourly Weather Golden Sands

    Today, 19 February, Wednesday

    Time Temperature Precipitation Wind Pressure Humidity
    00:00 +8°C° 0 mm 2 mps 763 mmHg 73%
    01:00 +8°C° 0 mm 2 mps 764 mmHg 73%
    02:00 +8°C° 0 mm 1 mps 764 mmHg 73%
    03:00 +7°C° 0 mm 2 mps 764 mmHg 75%
    04:00 +7°C° 0 mm 3 mps 764 mmHg 76%
    05:00 +5°C° 0 mm 4 mps 763 mmHg 78%
    06:00 +6°C° 0 mm 4 mps 764 mmHg 78%
    07:00 +6°C° 0 mm 4 mps 764 mmHg 77%
    08:00 +6°C° 0 mm 4 mps 764 mmHg 75%
    09:00 +7°C° 0 mm 4 mps 764 mmHg 76%
    10:00 +7°C° 0 mm 4 mps 764 mmHg 76%
    11:00 +8°C° 0 mm 5 mps 764 mmHg 76%
    12:00 +8°C° 0 mm 4 mps 764 mmHg 76%
    13:00 +8°C° 0 mm 4 mps 763 mmHg 76%
    14:00 +8°C° 0 mm 4 mps 763 mmHg 76%
    15:00 +8°C° 0 mm 4 mps 763 mmHg 77%
    16:00 +8°C° 0 mm 4 mps 763 mmHg 78%
    17:00 +7°C° 0 mm 4 mps 762 mmHg 79%
    18:00 +7°C° 0 mm 4 mps 762 mmHg 83%
    19:00 +6°C° 0 mm 4 mps 762 mmHg 87%
    20:00 +5°C° 0 mm 3 mps 762 mmHg 91%
    21:00 +5°C° 0 mm 3 mps 762 mmHg 91%
    22:00 +5°C° 0 mm 3 mps 762 mmHg 91%
    23:00 +6°C° 0 mm 2 mps 762 mmHg 91%

    Tomorrow, 20 February, Thursday

    Time Temperature Precipitation Wind Pressure Humidity
    00:00 +6°C° 0 mm 2 mps 762 mmHg 92%
    01:00 +6°C° 0 mm 2 mps 761 mmHg 92%
    02:00 +6°C° 0 mm 2 mps 761 mmHg 92%
    03:00 +6°C° 0 mm 2 mps 761 mmHg 93%
    04:00 +6°C° 0 mm 2 mps 761 mmHg 93%
    05:00 +5°C° 0 mm 2 mps 761 mmHg 93%
    06:00 +6°C° 0 mm 2 mps 761 mmHg 94%
    07:00 +5°C° 0 mm 3 mps 761 mmHg 94%
    08:00 +5°C° 0 mm 3 mps 761 mmHg 94%
    09:00 +7°C° 0 mm 3 mps 761 mmHg 90%
    10:00 +8°C° 0 mm 3 mps 761 mmHg 85%
    11:00 +8°C° 0 mm 3 mps 761 mmHg 81%
    12:00 +9°C° 0 mm 3 mps 761 mmHg 80%
    13:00 +9°C° 0 mm 3 mps 761 mmHg 80%
    14:00 +8°C° 0 mm 4 mps 761 mmHg 79%
    15:00 +7°C° 0 mm 4 mps 761 mmHg 81%
    16:00 +7°C° 0 mm 4 mps 761 mmHg 83%
    17:00 +7°C° 0 mm 4 mps 761 mmHg 85%
    18:00 +6°C° 0.1 mm 5 mps 761 mmHg 88%
    19:00 +6°C° 0.1 mm 5 mps 761 mmHg 90%
    20:00 +5°C° 0.1 mm 6 mps 762 mmHg 92%
    21:00 +5°C° 0.1 mm 6 mps 762 mmHg 91%
    22:00 +4°C° 0.1 mm 7 mps 762 mmHg 90%
    23:00 +4°C° 0.1 mm 7 mps 762 mmHg 89%

    Day after tomorrow, 21 February, Friday

    Time Temperature Precipitation Wind Pressure Humidity
    00:00 +4°C° 0 mm 7 mps 762 mmHg 88%
    01:00 +4°C° 0 mm 8 mps 763 mmHg 87%
    02:00 +2°C° 0 mm 8 mps 763 mmHg 86%
    03:00 +2°C° 0 mm 8 mps 763 mmHg 85%
    04:00 +2°C° 0 mm 8 mps 763 mmHg 85%
    05:00 +2°C° 0 mm 9 mps 763 mmHg 84%
    06:00 +2°C° 0 mm 9 mps 764 mmHg 82%
    07:00 +2°C° 0 mm 9 mps 764 mmHg 80%
    08:00 +2°C° 0 mm 9 mps 764 mmHg 78%
    15:00 +7°C° 0 mm 5 mps 765 mmHg 62%
    16:00 +7°C° 0 mm 5 mps 765 mmHg 64%
    17:00 +6°C° 0 mm 5 mps 765 mmHg 67%
    18:00 +5°C° 0 mm 4 mps 765 mmHg 70%
    19:00 +5°C° 0 mm 3 mps 765 mmHg 74%
    20:00 +5°C° 0 mm 2 mps 766 mmHg 77%
    21:00 +5°C° 0 mm 2 mps 766 mmHg 78%
    22:00 +6°C° 0 mm 1 mps 766 mmHg 79%
    23:00 +6°C° 0 mm 1 mps 765 mmHg 80%

    22 February, Saturday

    Time Temperature Precipitation Wind Pressure Humidity
    00:00 +6°C° 0 mm 1 mps 766 mmHg 81%
    01:00 +5°C° 0 mm 2 mps 766 mmHg 83%
    02:00 +5°C° 0 mm 2 mps 766 mmHg 84%
    03:00 +5°C° 0.1 mm 2 mps 765 mmHg 85%
    04:00 +4°C° 0.1 mm 3 mps 765 mmHg 86%
    05:00 +3°C° 0.1 mm 3 mps 765 mmHg 86%
    06:00 +4°C° 0 mm 3 mps 766 mmHg 86%
    07:00 +4°C° 0 mm 4 mps 766 mmHg 86%
    08:00 +4°C° 0 mm 4 mps 767 mmHg 86%
    09:00 +3°C° 0.1 mm 5 mps 767 mmHg 83%
    10:00 +4°C° 0.1 mm 6 mps 768 mmHg 81%
    11:00 +4°C° 0.1 mm 7 mps 769 mmHg 78%
    12:00 +4°C° 0 mm 7 mps 769 mmHg 74%
    13:00 +5°C° 0 mm 7 mps 769 mmHg 70%
    14:00 +5°C° 0 mm 7 mps 769 mmHg 67%
    15:00 +5°C° 0 mm 7 mps 769 mmHg 67%
    16:00 +5°C° 0 mm 7 mps 769 mmHg 67%
    17:00 +5°C° 0 mm 6 mps 769 mmHg 68%
    18:00 +4°C° 0 mm 6 mps 770 mmHg 70%
    19:00 +3°C° 0 mm 6 mps 770 mmHg 71%
    20:00 +3°C° 0 mm 6 mps 771 mmHg 73%
    21:00 +2°C° 0 mm 6 mps 771 mmHg 74%
    22:00 +2°C° 0 mm 5 mps 771 mmHg 74%
    23:00 +2°C° 0 mm 5 mps 771 mmHg 74%

    23 February, Sunday

    Time Temperature Precipitation Wind Pressure Humidity
    00:00 +1°C° 0 mm 5 mps 771 mmHg 74%
    01:00 +1°C° 0 mm 4 mps 770 mmHg 74%
    02:00 +1°C° 0 mm 4 mps 770 mmHg 75%
    03:00 +1°C° 0 mm 4 mps 770 mmHg 77%
    04:00 +1°C° 0 mm 4 mps 770 mmHg 79%
    05:00 +1°C° 0 mm 4 mps 769 mmHg 81%
    06:00 +1°C° 0 mm 4 mps 769 mmHg 77%
    07:00 +1°C° 0 mm 5 mps 769 mmHg 73%
    08:00 +2°C° 0 mm 5 mps 769 mmHg 70%
    09:00 +3°C° 0 mm 5 mps 769 mmHg 64%
    10:00 +5°C° 0 mm 6 mps 769 mmHg 57%
    11:00 +7°C° 0 mm 6 mps 768 mmHg 51%
    12:00 +8°C° 0 mm 6 mps 768 mmHg 49%
    13:00 +9°C° 0 mm 6 mps 767 mmHg 47%
    14:00 +9°C° 0 mm 6 mps 767 mmHg 45%
    15:00 +9°C° 0 mm 6 mps 766 mmHg 47%
    16:00 +9°C° 0 mm 6 mps 766 mmHg 49%
    17:00 +9°C° 0 mm 6 mps 765 mmHg 51%
    18:00 +8°C° 0 mm 6 mps 765 mmHg 55%
    19:00 +8°C° 0 mm 6 mps 765 mmHg 58%
    20:00 +7°C° 0 mm 6 mps 765 mmHg 61%
    21:00 +7°C° 0 mm 6 mps 765 mmHg 61%
    22:00 +7°C° 0 mm 5 mps 764 mmHg 61%
    23:00 +7°C° 0 mm 5 mps 764 mmHg 61%

    24 February, Monday

    Time Temperature Precipitation Wind Pressure Humidity
    00:00 +7°C° 0 mm 5 mps 764 mmHg 62%
    01:00 +7°C° 0 mm 5 mps 763 mmHg 63%
    02:00 +7°C° 0 mm 5 mps 763 mmHg 63%
    03:00 +7°C° 0 mm 5 mps 762 mmHg 62%
    04:00 +7°C° 0 mm 6 mps 761 mmHg 61%
    05:00 +7°C° 0 mm 6 mps 760 mmHg 60%
    06:00 +7°C° 0 mm 6 mps 760 mmHg 59%
    07:00 +6°C° 0 mm 7 mps 759 mmHg 58%
    08:00 +6°C° 0 mm 8 mps 759 mmHg 57%
    09:00 +10°C° 0 mm 8 mps 758 mmHg 50%
    10:00 +12°C° 0 mm 8 mps 758 mmHg 43%
    11:00 +16°C° 0 mm 8 mps 758 mmHg 36%
    12:00 +16°C° 0 mm 9 mps 757 mmHg 39%
    13:00 +16°C° 0 mm 10 mps 757 mmHg 41%
    14:00 +16°C° 0 mm 11 mps 757 mmHg 43%
    15:00 +13°C° 0.2 mm 11 mps 758 mmHg 46%
    16:00 +11°C° 0.2 mm 11 mps 758 mmHg 49%
    17:00 +8°C° 0.2 mm 11 mps 759 mmHg 52%
    18:00 +7°C° 0 mm 11 mps 760 mmHg 50%
    19:00 +7°C° 0 mm 10 mps 762 mmHg 48%
    20:00 +6°C° 0 mm 10 mps 763 mmHg 45%
    21:00 +5°C° 0 mm 10 mps 764 mmHg 47%
    22:00 +5°C° 0 mm 10 mps 765 mmHg 48%
    23:00 +4°C° 0 mm 11 mps 765 mmHg 50%
    Show more